Location: Newark
(49.8969°N, 3.3422°E)
Time: 01:30:40
(UTC+00:00)

Envisat - Pass Details

Date: 07 December 2019
Orbit: 764 x 766 km, 98.1° (Epoch: 23 January)

Event Time Altitude Azimuth Distance (km) Brightness Sun altitude
Rises 17:48:03 0° 172° (S) 3,221 6.3 -18.7°
Reaches altitude 10° 17:50:22 10° 175° (S) 2,299 5.6 -19.0°
Maximum altitude 17:55:24 66° 258° (WSW) 836 3.4 -19.8°
Drops below altitude 10° 18:00:30 10° 341° (NNW) 2,317 5.6 -20.6°
Sets 18:02:50 0° 344° (NNW) 3,248 6.3 -21.0°
